This demonstration page uses our WeatherBlox Daily Observations layout. Learn more.

Left ArrowRight Arrow

41.86663, -103.66717

Hourly Observations for June 19, 2022

Temp ( °F °C ) Dew Point ( °F °C ) Humidity (%) Winds ( mph kmh ) Pressure ( in mb ) Visibility ( mi km ) Precip ( " mm )
12:53 am 00:53 Clear 75 23.9 51 10.6 43 43 E 8 13 29.68 1005 10 16 0.00 0.00
1:53 am 01:53 Clear 78 25.6 50 10 37 37 S 9 15 29.70 1006 10 16 0.00 0.00
2:53 am 02:53 Clear 75 23.9 49 9.4 40 40 S 12 19 29.71 1006 10 16 0.00 0.00
3:53 am 03:53 Clear 72 22.2 49 9.4 44 44 S 7 11 29.72 1006 10 16 0.00 0.00
4:53 am 04:53 Clear 69 20.6 49 9.4 49 49 S 7 11 29.73 1007 10 16 0.00 0.00
5:53 am 05:53 Sunny 66 18.9 49 9.4 54 54 ESE 6 9 29.75 1008 10 16 0.00 0.00
6:53 am 06:53 Sunny 73 22.8 50 10 44 44 ESE 9 15 29.74 1007 10 16 0.00 0.00
7:53 am 07:53 Sunny 75 23.9 51 10.6 43 43 SE 6 9 29.75 1007 10 16 0.00 0.00
8:53 am 08:53 Sunny 84 28.9 50 10 31 31 SSW 12 19 29.74 1007 10 16 0.00 0.00
9:53 am 09:53 Sunny 87 30.6 48 8.9 26 26 WSW 7 11 29.72 1007 10 16 0.00 0.00
10:53 am 10:53 Sunny 90 32.2 48 8.9 24 24 WNW 8 13 29.72 1006 10 16 0.00 0.00
11:53 am 11:53 Sunny 92 33.3 48 8.9 22 22 NNW 6 9 29.71 1006 10 16 0.00 0.00
12:53 pm 12:53 Partly Cloudy 92 33.3 48 8.9 22 22 NE 8 13 29.69 1005 10 16 0.00 0.00
1:53 pm 13:53 Mostly Cloudy with Light Rain 86 30 53 11.7 32 32 NW 13 20 29.67 1005 10 16 0.01 0.25
2:53 pm 14:53 Mostly Cloudy 93 33.9 51 10.6 24 24 N 13 20 29.64 1004 10 16 0.00 0.00
3:53 pm 15:53 Sunny 91 32.8 60 15.6 35 35 NE 10 17 29.62 1003 10 16 0.03 0.76
4:53 pm 16:53 Partly Cloudy 88 31.1 56 13.3 34 34 N 9 15 29.62 1003 10 16 0.00 0.00
5:53 pm 17:53 Sunny 89 31.7 54 12.2 30 30 NE 10 17 29.60 1002 10 16 0.00 0.00
6:53 pm 18:53 Mostly Cloudy 81 27.2 53 11.7 38 38 NNW 21 33 29.65 1004 10 16 0.00 0.00
7:53 pm 19:53 Sunny 77 25 52 11.1 42 42 NW 8 13 29.66 1004 10 16 0.00 0.00
8:53 pm 20:53 Clear 73 22.8 51 10.6 46 46 NNE 14 22 29.66 1005 10 16 0.00 0.00
9:53 pm 21:53 Clear 70 21.1 51 10.6 51 51 WNW 8 13 29.71 1006 10 16 0.00 0.00
10:53 pm 22:53 Clear 66 18.9 53 11.7 63 63 WNW 6 9 29.74 1007 10 16 0.00 0.00
11:53 pm 23:53 Clear 62 16.7 53 11.7 73 73 Calm 29.74 1007 10 16 0.00 0.00

Powered by AerisWeather